Location: El Carrer d�Abaix
(41.5797°N, 2.1791°E)
Time: 01:54:10
(UTC+00:00)

Nadezhda 4 Rocket - Pass Details

Date: 06 June 2020
Orbit: 950 x 991 km, 82.9° (Epoch: 15 July)

Event Time Altitude Azimuth Distance (km) Brightness Sun altitude
Rises 20:39:32 0° 186° (S) 3,623 6.6 -12.0°
Reaches altitude 10° 20:42:01 10° 187° (S) 2,676 5.9 -12.3°
Maximum altitude 20:48:09 87° 274° (W) 959 4.0 -13.1°
Drops below altitude 10° 20:54:18 10° 7° (N) 2,684 6.9 -13.9°
Sets 20:56:48 0° 8° (N) 3,634 7.6 -14.2°
